STARLINK-4710, 53799

Orbit data source: Space-Track

STARLINK-4710, 53799 is a payload satellite owned by SpaceX/Seattle (US) in LEO that was launched on Sun, 11 Sep 2022 UTC via an FALCON 9 launch vehicle from the Air Force Eastern Test Range (AFETR). Payloads include a variety of satellites, spacecraft, and rockets equipped with specific instruments for various scientific and technological missions. These include communications satellites like Starlink; space stations such as the ISS; scientific satellites like the Hubble; Earth observation satellites from companies like Planet Labs, Umbra, and HawkEye 360; GPS; miniature CubeSats for education and research; and military/defense satellites.

Loading next visibility...
STARLINK-4710 details
Identifier
53799, 2022-111AC
Orbit
LEO
Last TLE update1 day ago
Origin
Flag of USSpaceX/Seattle (US)
ManufacturerSpaceX/Seattle
MissionOperational Commercial Communications
Bus & MotorSTARLINK, Unknown motor
Mass305 kg wet, ~290 kg dry
Launch date (UTC)
2022-09-11 (2 years ago)
Launch vehicle
FALCON 9
Launch site
Air Force Eastern Test Range (AFETR)
Object type
Payload
Rocket body
Debris
Shape & HBRBox + 1 Pan, 8.86 m
Radar Cross Section13.562 m², Large (>1 m²)

Expand to show TLE details & history

TLE from 1 day ago
0 STARLINK-4710
1 53799U 22111AC  24347.85486736  .00001768  00000-0  12916-3 0  9991
2 53799  53.2173 132.5532 0001531  87.9902 272.1266 15.08840651125600
Epoch: 2024-12-12T20:31Z
Definitive object data (Epoch: 2024-12-12T20:31:00.539Z)
Latitude-0°
Longitude102.77173°
Altitude540.6 km
Speed7.593 km/s
True Right ascension08h 50m 12s
True Declination0° 00' 00"
Sunlit
Object was in full shadow at TLE epoch
Visualization TLE readout
Latitude-19.61762°
Longitude-66.78829°
Altitude545.581 km
Speed7.589 km/s
Apparent Right ascension21h 57m 54s
Apparent Declination-75° 35' 36"
Sunlit
Object is in daylight
Visualization observer readout
Local Sidereal Time21:23:18
Azimuth177.621° S
Elevation-25.647°
Doppler factor1
Orbital elements
Apogee altitude541.046 km
Perigee altitude538.927 km
Semi-major axis6,918.123 km
Eccentricity0.0001531
Inclination53.2173°
RAAN132.5532°
Arg. of periapsis87.9902°
True anomaly272.10907°
Mean anomaly272.1266°
Eccentric anomaly272.11783°
Mean motion3.7719 °/min
BSTAR0.00012916
Orbital period95.44 mins
Loading maneuver chart data...
Loading historical data...
Loading historical data...
Loading historical data...
Loading historical data...
Loading historical data...
Loading historical data...
Loading historical data...

STARLINK-4710 Visibility forecast

Observer location: undefined°, undefined

Span
Click to sort rows by Start time (UTC) header in descending order
Start Az.
Max El. time (UTC)
Max El. Az.
Max El.
End time (UTC)
End Az.
4 mins2024-12-14 10:49:20.204Z154.462° SSE2024-12-14 10:51:20.204Z123.415° SE13.748°2024-12-14 10:53:20.204Z93.418° ESE
6 mins2024-12-14 12:27:20.204Z236.947° WSW2024-12-14 12:30:20.204Z0.981° NNE43.5°2024-12-14 12:33:20.204Z46.138° ENE
4 mins2024-12-14 14:08:20.204Z309.88° NW2024-12-14 14:10:20.204Z347.376° N17.793°2024-12-14 14:12:20.204Z20.22° NNE
5 mins2024-12-14 17:29:20.204Z346.565° N2024-12-14 17:31:20.204Z25.799° NE20.3°2024-12-14 17:34:20.204Z74.471° E
6 mins2024-12-14 19:08:20.204Z307.207° NW2024-12-14 19:11:20.204Z156.979° SSE43.393°2024-12-14 19:14:20.204Z135.081° SSE
|